Tracking 30415 objects as of 14-May-2025
HD Live streaming from Space Station
objects crossing your sky now

IRIDIUM 33 DEB

Track IRIDIUM 33 DEB now!
10-day predictions


NORAD ID: 35480
Int'l Code: 1997-051QA
Perigee: 725.6 km
Apogee: 749.1 km
Inclination: 86.4 °
Period: 99.4 minutes
Semi major axis: 7108 km
RCS: 0.0115 m2 (small)
Launch date: September 14, 1997
Source: United States (US)
Launch site: TYURATAM MISSILE AND SPACE COMPLEX (TTMTR)

Note: This is SATELLITE DEBRIS
Your satellite tracking list
Your tracking list is empty




NASA's NSSDC Master Catalog

Two Line Element Set (TLE):
1 35480U 97051QA  25133.22136898  .00002473  00000-0  65145-3 0  9995
2 35480  86.3539 117.3881 0016532  97.0592 263.2492 14.48608589839397
Source of the keplerian elements: AFSPC